User: anonymous   Login
Location: Raven Hill Discovery Center
(45.1336°N, 85.0553°W)
Time: 00:45:38
(UTC-05:00)
Language:

Cosmos 1470 - Orbit

View from above orbital plane
View from above orbital plane
View from above satellite
View from above satellite

Ground track
Ground track

The orbit data is extracted from the following two-line orbital elements,

1 14147U 83061A   14326.11923250  .00005023  00000-0  32657-3 0  1396
2 14147 082.5117 238.1711 0012795 262.3181 097.6594 15.07735786463285
Epoch (UTC): 22 November 2014 02:51:41
Eccentricity: 0.0012795
inclination: 82.5117°
perigee height: 534 km
apogee height: 552 km
right ascension of ascending node: 238.1711°
argument of perigee: 262.3181°
revolutions per day: 15.07735786
mean anomaly at epoch: 97.6594°
orbit number at epoch: 46328

The dashed part of the orbit path shows where the satellite is in the earth's shadow,  

DLR